Find Midori

NORAD ID: 24277 Int'l Des: 1996-046 Owner: NASDA Country: J operational
LEOCIRCULARRETROGRADESSO

リアルタイム位置

3D地球を読み込み中...

Midoriについて

説明を読み込み中...

次回通過

Passes for default location (London). Set your location on the main map for personalized predictions.

高度履歴

Loading altitude history...

軌道要素

1 24277U 96046A 26121.15632409 .00000127 00000-0 66606-4 0 9997
2 24277 98.8036 174.9973 0000569 185.8530 174.2646 14.30384582548946
Epoch: May 1, 2026 • Age: 12 hours

現在のステータス

高度 801.6 km
速度 7.45 km/s
衛星直下点 -29.06°S, 90.32°E
打ち上げ日 Aug 17, 1996
運用期間 29.7 years
タイプ other

技術仕様

分類 Payload
質量 3200.00 kg
乾燥質量 3065.00 kg
総質量 3200.00 kg
長さ 5.00 m
直径 4.00 m
スパン 19.00 m
形状 Box + Pan
製造者 MELCO
バスタイプ ADEOS
フェーズステータス Unknown Transfer Status
所有者/国 NASDA/J

Most Searched